Temperature
-0 0 1 0 1 1 1 1 1 2 2 2 1 1 1 1 2 2 2 3 3 3 4 5 5 5 5 6 6 6 6 6 6 6 6 6 6 6 6 6 6 6 6 6
-0 0 1 1 1 1 1 1 1 1 1 1 1 1 1 1 1 1 1 2 2 3 3 4 4 4 5 5 5 5 5 5 5 5 5 5 6 5 5 5 5 5 5 5
-1 -0 0 -0 -0 -0 0 0 0 1 1 0 0 0 0 0 0 1 1 1 2 2 3 3 3 4 4 4 4 4 4 4 4 4 4 4 4 4 4 5 4 4 4 4
-2 -1 -1 0 -0 -1 -0 -0 -0 0 -0 -0 -0 -0 0 0 0 0 0 1 1 2 2 2 3 3 3 3 3 3 3 3 3 3 3 3 3 4 4 4 4 4 4 4
-3 -2 -1 -0 -1 -1 -1 -1 -1 -1 -1 -1 -1 -0 -0 0 -0 -0 0 0 1 1 2 2 2 2 2 2 2 2 3 3 3 3 3 3 3 3 3 3 3 3 3 3
-3 -2 -1 -0 -1 -1 -1 -1 -1 -1 -1 -1 -1 -1 -1 -1 -1 -0 -0 0 0 1 1 1 1 1 2 2 2 2 2 2 2 2 2 2 2 2 2 2 2 2 2 2
-4 -3 -2 -2 -2 -1 -1 -1 -1 -1 -1 -2 -2 -2 -1 -1 -1 -1 -1 -1 -0 0 0 1 1 1 1 1 1 1 1 2 2 2 2 2 2 2 2 2 2 1 1 1
-4 -3 -2 -2 -2 -2 -2 -1 -1 -1 -1 -2 -2 -2 -2 -2 -2 -1 -1 -1 -1 -1 -0 -0 -0 0 0 1 1 0 1 1 1 1 1 1 1 1 1 1 1 1 1 1
-4 -2 -2 -2 -2 -1 -1 -2 -2 -2 -2 -2 -2 -3 -3 -2 -2 -2 -2 -2 -2 -1 -1 -1 -1 -1 -1 -0 -0 -0 -0 0 0 0 0 0 0 1 0 0 0 0 0 0
-5 -4 -3 -2 -2 -1 -2 -2 -2 -2 -2 -2 -3 -3 -3 -3 -3 -3 -2 -2 -2 -2 -2 -2 -2 -2 -2 -1 -1 -1 -1 -1 -1 -0 -0 -0 -0 -0 -0 -0 -0 -0 -1 -1
-5 -4 -3 -2 -2 -2 -2 -2 -2 -2 -3 -3 -3 -3 -3 -3 -3 -3 -3 -3 -3 -3 -3 -2 -2 -2 -2 -2 -2 -2 -1 -1 -1 -1 -1 -1 -1 -1 -1 -1 -1 -1 -1 -1
-4 -3 -4 -2 -1 -2 -2 -2 -2 -3 -3 -3 -3 -3 -3 -4 -4 -4 -4 -4 -4 -3 -3 -3 -3 -3 -3 -3 -2 -2 -2 -2 -2 -2 -2 -2 -2 -2 -2 -2 -2 -2 -2 -2
-2 -2 -2 -2 -2 -2 -2 -3 -3 -3 -3 -3 -3 -4 -4 -4 -4 -4 -4 -4 -4 -4 -4 -4 -3 -3 -3 -3 -3 -3 -3 -3 -3 -2 -2 -2 -2 -2 -2 -3 -3 -3 -3 -3
-2 -3 -3 -3 -3 -3 -3 -3 -3 -3 -3 -4 -4 -4 -4 -4 -4 -4 -4 -4 -4 -4 -4 -4 -4 -4 -4 -4 -4 -3 -3 -3 -3 -3 -3 -3 -3 -3 -3 -3 -3 -3 -3 -4
-3 -3 -3 -3 -3 -3 -3 -3 -4 -4 -4 -4 -4 -4 -4 -5 -5 -5 -5 -5 -5 -5 -5 -5 -4 -4 -4 -4 -4 -4 -4 -4 -4 -4 -4 -4 -4 -4 -4 -4 -4 -4 -4 -4
-3 -3 -3 -4 -3 -3 -4 -4 -4 -4 -4 -4 -4 -5 -5 -5 -5 -5 -5 -5 -5 -5 -5 -5 -5 -5 -5 -5 -5 -4 -5 -5 -5 -5 -5 -5 -5 -5 -5 -5 -5 -5 -5 -5
-4 -4 -4 -4 -4 -4 -4 -4 -4 -4 -4 -5 -5 -5 -5 -5 -5 -5 -5 -6 -6 -6 -6 -6 -5 -5 -5 -5 -5 -5 -5 -5 -5 -5 -5 -5 -5 -5 -5 -5 -5 -5 -5 -5
-3 -3 -3 -3 -3 -4 -4 -4 -4 -4 -5 -5 -5 -5 -5 -5 -6 -6 -6 -6 -6 -6 -6 -6 -6 -6 -6 -6 -6 -5 -6 -6 -6 -6 -6 -6 -6 -6 -6 -6 -6 -6 -6 -6
-4 -4 -4 -4 -4 -4 -4 -4 -4 -4 -5 -5 -5 -5 -5 -6 -6 -6 -6 -6 -6 -6 -6 -6 -6 -6 -6 -6 -6 -6 -6 -6 -6 -6 -6 -6 -6 -6 -6 -6 -6 -6 -6 -6
-4 -4 -4 -4 -4 -4 -4 -4 -4 -5 -5 -5 -5 -5 -6 -6 -6 -6 -6 -6 -6 -6 -6 -6 -6 -6 -6 -6 -7 -7 -7 -7 -7 -7 -7 -7 -7 -7 -7 -7 -7 -7 -7 -7
-4 -4 -4 -4 -4 -4 -4 -4 -5 -5 -5 -5 -5 -6 -6 -6 -6 -7 -6 -6 -7 -7 -7 -7 -7 -7 -7 -7 -7 -7 -7 -7 -7 -7 -7 -7 -7 -7 -7 -7 -7 -7 -7 -7
-4 -4 -4 -4 -4 -4 -5 -5 -5 -5 -5 -6 -6 -6 -6 -6 -7 -7 -7 -7 -7 -7 -7 -7 -7 -7 -7 -7 -7 -7 -8 -8 -8 -8 -8 -8 -8 -8 -8 -8 -8 -8 -8 -8
-4 -4 -4 -4 -4 -5 -5 -5 -5 -5 -6 -6 -6 -6 -6 -7 -7 -7 -7 -7 -7 -7 -7 -7 -8 -8 -8 -8 -8 -8 -8 -8 -8 -8 -8 -8 -8 -8 -8 -8 -8 -8 -8 -8
-4 -4 -5 -5 -5 -5 -5 -5 -6 -6 -6 -6 -6 -7 -7 -7 -7 -7 -7 -7 -7 -8 -8 -8 -8 -8 -8 -8 -8 -8 -8 -8 -8 -8 -8 -8 -8 -8 -8 -8 -9 -9 -9 -9
-4 -5 -5 -5 -5 -5 -5 -6 -6 -6 -6 -7 -7 -7 -7 -7 -7 -7 -7 -8 -8 -8 -8 -8 -8 -8 -8 -8 -8 -8 -8 -9 -9 -9 -9 -9 -9 -9 -9 -9 -9 -9 -9 -9
-5 -5 -5 -5 -5 -6 -6 -6 -6 -7 -7 -7 -7 -7 -7 -7 -7 -8 -8 -8 -8 -8 -8 -8 -8 -8 -9 -9 -9 -9 -9 -9 -9 -9 -9 -9 -9 -9 -9 -9 -9 -9 -9 -9
-5 -5 -5 -6 -6 -6 -6 -6 -7 -7 -7 -7 -7 -7 -8 -8 -8 -8 -8 -8 -8 -8 -8 -8 -9 -9 -9 -9 -9 -9 -9 -9 -9 -9 -9 -9 -9 -9 -9 -9 -9 -9 -9 -9
Wind_Speed
6 6 4 5 7 4 4 6 6 6 6 8 8 7 7 6 7 7 7 7 7 6 5 5 5 4 3 2 3 3 4 5 4 4 4 4 5 5 5 5 4 4 4 3
4 4 4 6 7 7 6 6 6 6 8 6 5 5 5 5 6 6 7 7 7 6 5 5 4 4 3 2 2 3 4 4 4 5 5 4 4 5 5 5 4 4 4 3
4 5 4 5 6 5 4 4 5 7 6 4 5 6 6 5 5 6 7 7 7 6 5 5 4 3 2 2 2 3 4 4 4 4 4 4 4 4 5 4 4 4 3 3
2 3 4 6 2 2 3 4 4 4 3 2 4 5 5 4 4 6 7 7 7 6 5 5 4 3 2 2 2 3 4 4 3 4 4 4 4 4 4 3 4 3 3 3
1 2 6 6 3 0 2 5 2 2 3 4 4 5 4 4 4 5 6 7 6 5 5 4 3 2 2 2 3 3 3 3 3 4 4 4 4 3 3 4 3 3 2 2
2 2 5 5 3 2 0 4 2 1 4 4 4 4 5 6 6 6 7 6 6 5 5 4 3 2 2 2 2 1 1 2 2 3 4 4 3 3 3 3 3 2 2 1
3 4 7 5 3 1 2 5 4 3 4 3 3 5 6 6 6 6 6 6 5 5 4 4 3 2 2 2 1 1 1 2 2 3 3 4 4 3 3 3 3 3 2 1
3 4 7 2 2 3 5 4 3 4 4 3 4 5 5 5 6 6 6 6 5 5 5 4 3 2 2 1 1 2 2 2 2 2 3 3 4 3 3 4 3 2 2 1
7 7 4 2 3 3 2 3 4 3 4 3 3 4 4 4 5 5 5 5 5 4 5 5 4 2 2 2 2 2 3 3 3 3 3 3 3 3 3 3 2 2 1 1
5 7 6 6 5 4 3 4 4 4 4 3 3 4 5 4 4 4 4 5 4 4 4 5 4 3 1 1 2 2 3 2 2 3 3 3 2 2 2 2 2 2 2 1
6 7 6 5 6 6 4 4 4 4 3 3 3 4 4 4 3 3 4 4 4 4 3 4 4 3 3 2 2 2 2 2 2 2 2 2 2 1 1 1 2 2 2 3
8 6 5 6 5 4 4 4 4 3 3 3 3 4 3 3 2 2 3 3 3 4 4 4 4 4 3 2 2 2 2 2 2 2 1 1 1 1 2 1 1 2 1 2
7 4 5 6 5 3 3 4 4 3 3 3 3 2 1 2 2 2 2 3 3 4 4 4 4 4 4 3 2 2 1 1 1 1 1 1 1 1 1 2 2 2 2 2
5 3 4 4 4 4 4 3 2 2 2 2 2 1 1 1 2 2 2 3 3 3 3 3 3 4 4 3 2 1 1 1 1 1 0 0 0 0 0 0 1 2 2 3
7 6 6 4 4 3 2 1 1 2 2 2 1 1 1 1 2 2 2 2 2 2 3 3 4 4 4 3 2 1 1 1 1 0 0 0 0 0 0 1 1 1 2 2
5 5 5 5 5 4 2 2 3 3 2 2 2 2 1 1 1 2 2 2 1 2 3 3 3 4 4 2 1 1 1 1 1 0 0 0 0 0 0 1 1 1 2 2
3 4 5 5 6 5 4 4 4 4 3 3 3 2 1 0 1 2 2 2 1 2 3 3 3 3 3 2 1 1 1 1 2 1 1 0 0 0 1 1 1 1 2 3
8 7 7 6 6 6 5 4 4 3 3 3 2 1 1 1 2 2 2 2 2 2 3 3 3 2 2 1 1 1 1 0 0 0 0 1 1 1 0 1 1 1 2 2
5 6 5 5 5 5 5 4 4 3 2 2 2 2 2 2 2 2 1 1 2 2 3 3 3 1 1 1 1 0 0 0 0 0 0 1 1 1 1 1 1 1 1 2
4 4 4 3 3 3 3 3 2 2 2 2 2 1 2 2 2 1 1 1 2 2 2 2 1 1 1 1 1 0 0 0 0 0 0 0 1 1 1 1 1 1 1 1
4 4 3 3 3 3 3 3 3 3 2 2 3 3 2 2 1 1 1 2 2 2 2 2 1 0 0 0 1 1 0 0 0 0 0 0 1 1 1 1 1 2 2 2
3 4 4 3 3 2 2 2 3 3 2 2 2 2 1 1 1 1 1 2 2 2 1 1 1 1 0 1 1 1 1 0 0 0 0 0 1 1 1 1 2 2 2 2
3 3 3 3 3 2 1 2 2 3 3 3 3 2 2 2 1 1 2 2 1 1 0 0 1 1 1 2 2 1 1 1 1 0 0 1 1 1 1 2 2 2 2 2
3 3 3 2 2 2 2 2 2 2 2 2 2 2 2 1 1 2 1 1 1 0 0 1 1 1 2 2 2 1 1 1 0 0 0 1 1 1 1 2 2 2 2 3
3 3 3 3 3 3 3 2 2 2 2 1 1 1 1 2 2 1 1 1 1 0 0 1 1 2 2 1 1 1 0 0 0 0 0 1 1 1 2 2 2 2 3 3
3 3 3 3 3 3 2 2 2 2 2 1 1 1 1 1 1 1 1 1 0 0 1 1 1 1 1 1 1 0 0 1 1 1 1 1 2 2 2 2 3 3 3 4
2 2 2 1 2 2 3 3 3 2 2 2 2 1 1 1 1 1 1 1 1 0 0 0 0 0 1 1 0 0 0 1 1 1 1 2 2 2 3 3 3 4 4 5
Wind_Direction
263 271 265 272 284 280 232 220 220 243 256 280 305 312 317 330 339 349 352 352 352 351 353 1 9 13 21 50 89 105 110 111 113 109 108 112 115 119 122 122 124 127 126 125
289 278 275 282 282 268 255 240 229 247 270 281 304 316 323 337 344 346 342 338 338 343 348 353 357 1 14 25 68 102 106 105 108 108 106 106 109 115 118 116 114 114 119 125
285 306 324 287 268 245 236 234 213 234 248 304 333 333 326 330 335 328 327 328 330 333 334 335 341 351 10 18 64 94 102 100 103 110 110 107 108 107 111 114 114 112 110 108
295 3 262 254 271 241 247 270 248 251 275 305 304 309 314 328 327 326 328 328 329 330 330 334 345 360 29 55 81 97 105 107 108 115 116 110 109 107 105 105 109 111 105 104
164 266 279 290 299 278 251 287 263 253 293 315 330 331 325 340 338 327 323 322 321 321 323 334 344 3 50 59 76 87 102 114 120 122 120 114 112 113 112 109 103 103 106 108
156 218 253 267 299 303 166 286 295 298 297 312 338 317 301 331 334 331 332 331 333 335 338 341 344 23 80 78 80 87 100 114 126 130 128 127 126 121 116 117 118 110 98 96
204 234 265 270 295 33 190 265 304 295 297 296 276 266 290 315 324 332 335 336 342 345 347 344 352 46 78 83 76 67 90 99 108 123 128 128 122 119 119 115 110 106 101 68
182 219 258 265 120 194 242 292 302 299 290 274 275 292 304 314 324 334 341 345 349 352 349 349 5 45 62 46 39 65 79 90 95 105 117 117 118 117 118 121 118 117 114 64
203 224 258 236 226 260 273 282 285 284 287 271 279 290 304 315 323 332 340 347 353 355 353 355 10 46 62 21 53 74 77 81 87 91 100 111 121 121 115 120 132 143 154 185
253 264 269 269 268 282 272 270 279 281 282 271 273 289 302 311 319 332 342 345 350 357 359 356 10 32 42 41 67 83 84 83 88 95 92 92 104 122 136 153 161 175 191 210
253 274 295 277 258 264 270 274 282 289 278 264 271 286 291 299 308 324 336 343 350 350 350 350 4 17 20 34 73 87 87 88 85 84 94 89 85 118 175 207 204 213 215 212
235 234 230 266 273 264 263 271 272 278 291 291 271 279 288 297 311 324 331 342 349 356 360 359 10 14 10 23 77 106 101 89 87 88 86 88 81 43 34 24 357 337 294 264
233 240 237 262 277 259 251 264 270 262 262 282 290 283 296 306 317 330 341 347 347 354 357 357 6 6 1 11 56 99 120 111 98 97 101 93 91 76 14 16 24 27 14 333
237 233 254 250 255 260 257 267 273 281 285 284 291 307 322 320 329 335 331 332 338 348 351 353 2 353 345 358 32 64 87 97 100 118 137 162 196 236 259 284 330 339 345 347
237 230 237 253 260 267 263 266 278 289 301 310 318 312 308 303 309 315 323 336 350 353 350 354 352 341 344 3 28 49 78 96 95 134 165 201 296 327 318 306 297 310 332 341
250 246 241 244 247 250 243 240 242 259 268 272 282 279 271 267 292 313 327 340 346 332 330 336 332 329 342 359 24 39 55 65 49 74 90 70 43 258 269 289 303 311 312 309
211 233 230 239 242 242 233 229 230 240 245 247 251 255 260 300 324 321 324 332 324 314 317 318 318 327 341 353 23 41 45 42 32 37 39 11 314 275 273 268 286 303 302 299
219 225 224 226 226 229 233 230 229 230 234 236 231 217 222 231 253 273 292 322 342 338 326 316 312 324 336 350 30 78 83 81 55 25 359 330 321 319 299 284 285 294 311 322
225 224 224 224 219 213 218 221 221 220 218 199 196 219 233 239 245 258 280 309 313 314 312 312 323 349 338 343 30 81 105 76 19 355 344 315 341 349 321 297 294 298 306 324
220 219 218 222 214 206 212 212 195 196 201 184 186 204 234 249 248 249 253 271 266 267 289 315 333 333 320 329 33 83 112 118 26 330 326 306 301 308 313 315 310 308 311 316
216 213 209 211 216 213 206 194 181 194 196 180 189 211 231 248 241 227 242 282 289 285 298 322 2 323 297 2 33 86 86 68 33 319 313 314 314 318 321 323 323 321 322 323
209 207 206 201 198 214 216 189 181 180 176 186 202 206 211 238 246 255 256 247 273 293 320 345 326 279 325 42 100 107 94 55 14 0 344 329 318 318 322 326 324 324 321 316
203 198 195 194 195 199 188 186 188 181 189 198 203 208 213 221 216 223 270 272 279 289 348 278 275 328 36 73 88 87 72 49 30 18 350 331 318 312 313 315 313 313 309 305
191 187 185 169 144 153 199 224 204 194 197 206 215 210 200 210 242 241 246 280 279 284 24 299 333 44 66 80 86 82 72 58 28 348 335 329 317 306 299 299 301 302 300 299
181 174 166 163 179 204 213 198 176 183 183 206 233 225 207 198 210 238 237 250 251 39 41 338 18 48 63 75 90 98 105 184 204 281 324 319 312 309 302 296 292 294 296 295
182 190 197 202 205 201 187 178 187 200 192 208 247 239 217 197 187 176 174 187 204 120 56 34 28 38 62 73 73 53 7 335 345 350 326 308 301 299 295 296 296 293 290 290
169 172 174 200 215 198 187 184 190 200 196 197 222 226 198 173 157 158 151 136 122 88 73 61 52 72 88 90 69 28 351 321 305 300 296 293 290 288 290 290 291 293 292 290
Height
1500 1496 1495 1494 1492 1489 1489 1489 1489 1484 1482 1477 1475 1474 1471 1468 1465 1463 1461 1459 1457 1455 1454 1454 1454 1454 1455 1456 1457 1458 1460 1462 1464 1467 1469 1472 1474 1477 1479 1481 1484 1486 1487 1488
1499 1494 1492 1491 1488 1487 1486 1486 1485 1483 1481 1476 1475 1473 1470 1468 1465 1463 1461 1459 1457 1456 1455 1454 1454 1454 1454 1454 1456 1457 1459 1461 1463 1465 1467 1470 1472 1474 1476 1478 1481 1483 1484 1485
1500 1496 1491 1491 1486 1484 1483 1481 1481 1480 1478 1476 1475 1473 1471 1468 1466 1464 1462 1460 1458 1456 1455 1454 1454 1454 1453 1454 1454 1456 1457 1459 1461 1463 1466 1468 1470 1472 1474 1476 1478 1480 1481 1482
1504 1500 1500 1488 1483 1482 1481 1479 1479 1477 1476 1475 1475 1473 1470 1469 1467 1464 1462 1460 1457 1456 1455 1454 1453 1453 1453 1453 1454 1455 1456 1458 1460 1462 1464 1466 1468 1470 1472 1474 1476 1477 1478 1480
1507 1506 1496 1486 1483 1483 1483 1480 1477 1477 1475 1474 1473 1470 1469 1468 1466 1464 1462 1459 1457 1455 1454 1452 1452 1452 1452 1452 1453 1454 1456 1457 1459 1461 1463 1465 1466 1468 1470 1472 1473 1475 1476 1477
1508 1502 1494 1486 1483 1481 1483 1480 1476 1475 1474 1473 1472 1472 1469 1467 1465 1463 1460 1458 1456 1454 1452 1451 1451 1451 1451 1451 1452 1453 1455 1456 1458 1460 1461 1463 1465 1467 1468 1470 1471 1473 1473 1475
1508 1505 1493 1485 1482 1481 1486 1480 1475 1474 1473 1473 1472 1471 1468 1465 1463 1461 1459 1457 1455 1453 1451 1450 1450 1450 1450 1451 1452 1453 1454 1455 1457 1458 1460 1462 1463 1465 1467 1468 1469 1470 1470 1472
1507 1504 1494 1481 1481 1483 1480 1476 1474 1472 1472 1470 1469 1467 1466 1464 1462 1460 1457 1455 1454 1452 1451 1450 1450 1449 1449 1449 1451 1452 1453 1454 1455 1457 1459 1460 1461 1463 1464 1465 1466 1466 1467 1468
1495 1489 1481 1479 1478 1477 1476 1474 1472 1471 1469 1468 1467 1465 1463 1462 1460 1458 1457 1455 1453 1452 1450 1450 1449 1449 1448 1449 1450 1451 1452 1453 1454 1456 1457 1458 1459 1460 1461 1462 1463 1463 1464 1465
1489 1481 1478 1477 1475 1474 1474 1472 1471 1469 1468 1466 1464 1463 1461 1460 1459 1457 1456 1454 1453 1451 1450 1449 1449 1448 1449 1449 1450 1450 1451 1452 1453 1454 1455 1456 1457 1458 1459 1459 1460 1460 1461 1461
1484 1478 1475 1472 1472 1471 1470 1470 1468 1467 1466 1464 1463 1461 1460 1458 1457 1455 1454 1453 1452 1451 1450 1449 1448 1448 1448 1448 1449 1449 1450 1450 1451 1452 1453 1454 1455 1456 1456 1457 1457 1458 1458 1458
1476 1472 1473 1470 1469 1468 1467 1466 1465 1464 1463 1462 1461 1459 1458 1456 1455 1455 1454 1453 1452 1451 1449 1448 1448 1447 1447 1447 1448 1448 1448 1448 1449 1450 1451 1451 1452 1453 1453 1454 1454 1455 1455 1455
1468 1468 1468 1466 1466 1465 1464 1463 1463 1462 1461 1459 1458 1458 1456 1455 1454 1453 1452 1451 1450 1449 1448 1448 1447 1447 1447 1447 1447 1447 1447 1447 1447 1448 1449 1449 1450 1450 1450 1451 1452 1452 1452 1452
1465 1465 1463 1462 1462 1462 1461 1461 1460 1459 1458 1457 1456 1456 1455 1454 1453 1452 1451 1450 1449 1448 1447 1447 1446 1446 1446 1446 1446 1445 1445 1446 1446 1446 1447 1447 1447 1448 1448 1448 1448 1448 1449 1449
1460 1460 1460 1459 1459 1458 1458 1458 1457 1456 1456 1455 1455 1454 1453 1452 1451 1450 1449 1449 1448 1447 1446 1446 1445 1445 1445 1444 1444 1444 1444 1444 1444 1444 1445 1445 1445 1445 1446 1446 1446 1445 1445 1446
1456 1456 1456 1455 1455 1455 1455 1455 1454 1454 1454 1453 1452 1452 1451 1451 1450 1449 1448 1447 1446 1445 1445 1444 1444 1443 1443 1443 1443 1443 1443 1443 1443 1442 1442 1443 1443 1443 1443 1443 1443 1443 1443 1443
1451 1451 1451 1451 1451 1451 1451 1452 1452 1452 1452 1451 1451 1450 1449 1449 1448 1447 1446 1446 1445 1444 1443 1443 1442 1442 1442 1442 1441 1441 1441 1441 1441 1441 1441 1441 1441 1441 1441 1441 1441 1441 1441 1441
1447 1447 1447 1447 1447 1448 1448 1449 1449 1449 1449 1449 1448 1448 1447 1447 1446 1445 1445 1444 1443 1443 1442 1442 1441 1441 1441 1440 1440 1440 1440 1440 1440 1439 1439 1439 1439 1439 1439 1439 1439 1439 1438 1439
1442 1442 1443 1443 1444 1445 1445 1445 1446 1446 1446 1446 1446 1445 1445 1445 1444 1443 1442 1442 1441 1441 1441 1440 1440 1440 1439 1439 1439 1439 1439 1439 1438 1438 1438 1438 1438 1438 1438 1437 1437 1437 1436 1436
1438 1439 1439 1440 1441 1441 1442 1442 1443 1443 1444 1444 1443 1443 1443 1442 1442 1441 1440 1440 1440 1440 1439 1439 1439 1439 1439 1438 1438 1438 1438 1437 1437 1437 1437 1436 1436 1436 1436 1435 1435 1435 1434 1434
1435 1436 1436 1437 1438 1438 1439 1440 1440 1440 1441 1441 1441 1441 1440 1440 1440 1439 1439 1438 1439 1438 1438 1438 1438 1438 1437 1437 1437 1437 1437 1436 1436 1436 1435 1435 1435 1434 1434 1434 1433 1433 1432 1432
1433 1433 1434 1434 1435 1436 1437 1437 1438 1438 1438 1438 1438 1439 1438 1438 1438 1438 1438 1438 1438 1437 1437 1437 1437 1437 1437 1436 1436 1436 1435 1435 1435 1434 1434 1434 1433 1433 1433 1432 1432 1431 1431 1430
1431 1431 1432 1432 1433 1433 1434 1435 1435 1435 1436 1436 1436 1437 1437 1437 1437 1436 1436 1437 1436 1436 1436 1436 1436 1436 1436 1435 1435 1435 1434 1434 1434 1433 1433 1433 1432 1432 1431 1431 1430 1430 1429 1429
1429 1429 1430 1431 1431 1431 1432 1432 1433 1433 1434 1434 1434 1435 1435 1435 1435 1435 1435 1435 1435 1435 1435 1435 1435 1435 1434 1434 1434 1434 1433 1433 1433 1432 1432 1432 1431 1431 1430 1430 1429 1428 1428 1427
1426 1427 1428 1428 1428 1429 1429 1430 1430 1430 1431 1431 1432 1432 1433 1433 1433 1433 1433 1433 1433 1433 1433 1433 1433 1433 1433 1433 1433 1432 1432 1432 1431 1431 1431 1431 1430 1430 1429 1428 1428 1427 1426 1425
1424 1424 1425 1426 1426 1427 1427 1427 1427 1428 1428 1429 1429 1430 1430 1431 1431 1431 1431 1431 1431 1432 1432 1432 1432 1432 1432 1432 1431 1431 1431 1431 1430 1430 1430 1429 1429 1428 1427 1427 1426 1425 1424 1423
1421 1422 1422 1423 1423 1424 1424 1424 1425 1425 1426 1426 1427 1428 1428 1428 1429 1429 1429 1430 1430 1430 1430 1431 1431 1431 1431 1431 1430 1430 1430 1429 1429 1429 1428 1428 1427 1427 1426 1425 1424 1423 1422 1421